Location: Unspecified
(0.0000°N, 0.0000°E)
Time: 13:45:55
(UTC+00:00)

JUGNU - Pass Details

Date: 23 February 2020
Orbit: 836 x 864 km, 20.0° (Epoch: 01 April)

Event Time Altitude Azimuth Distance (km) Brightness Sun altitude
Rises 21:05:19 0° 267° (W) 3,370 ? -42.2°
Reaches altitude 10° 21:08:14 10° 255° (WSW) 2,435 ? -42.9°
Enters shadow 21:09:41 16° 244° (WSW) 2,035 ? -43.3°
